Time,TemperatureF,DewpointF,PressureIn,WindDirection,WindDirectionDegrees,WindSpeedMPH,WindSpeedGustMPH,Humidity,HourlyPrecipIn,Conditions,Clouds,dailyrainin,SoftwareType,DateUTC
2013-05-14 00:02:00,32.0,16.0,-100.00,NE,38,11.0,17.0,52,-99.99,,,-99.99,,2013-05-14 08:02:00,
2013-05-14 00:11:00,32.0,16.0,-100.00,NE,38,11.0,17.0,52,-99.99,,,-99.99,,2013-05-14 08:11:00,
2013-05-14 00:21:00,32.0,16.0,-100.00,NE,38,11.0,17.0,52,-99.99,,,-99.99,,2013-05-14 08:21:00,
2013-05-14 00:31:00,32.0,16.0,-100.00,NE,38,11.0,17.0,52,-99.99,,,-99.99,,2013-05-14 08:31:00,
2013-05-14 00:51:00,31.0,15.0,-100.00,NE,44,13.0,21.0,50,-99.99,,,-99.99,,2013-05-14 08:51:00,
2013-05-14 01:21:00,31.0,15.0,-100.00,NE,44,13.0,21.0,50,-99.99,,,-99.99,,2013-05-14 09:21:00,
2013-05-14 01:32:00,31.0,15.0,-100.00,NE,44,13.0,21.0,50,-99.99,,,-99.99,,2013-05-14 09:32:00,
2013-05-14 01:44:00,31.0,15.0,-100.00,NE,44,13.0,21.0,50,-99.99,,,-99.99,,2013-05-14 09:44:00,
2013-05-14 02:04:00,30.0,14.0,-100.00,NE,42,12.0,20.0,50,-99.99,,,-99.99,,2013-05-14 10:04:00,
2013-05-14 02:14:00,30.0,14.0,-100.00,NE,42,12.0,20.0,50,-99.99,,,-99.99,,2013-05-14 10:14:00,
2013-05-14 02:25:00,29.0,13.0,-100.00,NE,36,12.0,19.0,50,-99.99,,,-99.99,,2013-05-14 10:25:00,
2013-05-14 02:32:00,29.0,13.0,-100.00,NE,42,11.0,18.0,50,-99.99,,,-99.99,,2013-05-14 10:32:00,
2013-05-14 02:42:00,29.0,13.0,-100.00,NE,42,11.0,18.0,50,-99.99,,,-99.99,,2013-05-14 10:42:00,
2013-05-14 02:52:00,29.0,13.0,-100.00,NE,42,8.0,16.0,50,-99.99,,,-99.99,,2013-05-14 10:52:00,
2013-05-14 03:02:00,29.0,15.0,-100.00,NE,45,8.0,11.0,55,-99.99,,,-99.99,,2013-05-14 11:02:00,
2013-05-14 03:11:00,29.0,15.0,-100.00,NE,45,8.0,11.0,55,-99.99,,,-99.99,,2013-05-14 11:11:00,
2013-05-14 03:21:00,28.0,15.0,-100.00,NNE,30,4.0,9.0,58,-99.99,,,-99.99,,2013-05-14 11:21:00,
2013-05-14 03:32:00,28.0,15.0,-100.00,NNE,30,4.0,9.0,58,-99.99,,,-99.99,,2013-05-14 11:32:00,
2013-05-14 03:43:00,28.0,15.0,-100.00,NNE,30,4.0,9.0,58,-99.99,,,-99.99,,2013-05-14 11:43:00,
2013-05-14 03:52:00,29.0,19.0,-100.00,NE,53,6.0,10.0,65,-99.99,,,-99.99,,2013-05-14 11:52:00,
2013-05-14 04:02:00,28.0,16.0,-100.00,NE,47,6.0,11.0,61,-99.99,,,-99.99,,2013-05-14 12:02:00,
2013-05-14 04:12:00,28.0,16.0,-100.00,NE,47,6.0,11.0,61,-99.99,,,-99.99,,2013-05-14 12:12:00,
2013-05-14 04:21:00,28.0,14.0,-100.00,NE,49,6.0,11.0,56,-99.99,,,-99.99,,2013-05-14 12:21:00,
2013-05-14 04:31:00,28.0,14.0,-100.00,NE,49,6.0,11.0,56,-99.99,,,-99.99,,2013-05-14 12:31:00,
2013-05-14 04:42:00,28.0,14.0,-100.00,NE,49,6.0,11.0,56,-99.99,,,-99.99,,2013-05-14 12:42:00,
2013-05-14 04:51:00,30.0,15.0,-100.00,East,80,4.0,9.0,52,-99.99,,,-99.99,,2013-05-14 12:51:00,
2013-05-14 05:01:00,31.0,19.0,-100.00,ENE,61,4.0,6.0,60,-99.99,,,-99.99,,2013-05-14 13:01:00,
2013-05-14 05:11:00,31.0,19.0,-100.00,ENE,61,4.0,6.0,60,-99.99,,,-99.99,,2013-05-14 13:11:00,
2013-05-14 05:22:00,32.0,19.0,-100.00,East,100,0.0,5.0,57,-99.99,,,-99.99,,2013-05-14 13:22:00,
2013-05-14 05:32:00,32.0,19.0,-100.00,East,100,0.0,5.0,57,-99.99,,,-99.99,,2013-05-14 13:32:00,
2013-05-14 05:41:00,32.0,19.0,-100.00,East,100,0.0,5.0,57,-99.99,,,-99.99,,2013-05-14 13:41:00,
2013-05-14 05:51:00,32.0,19.0,-100.00,East,100,0.0,5.0,57,-99.99,,,-99.99,,2013-05-14 13:51:00,
2013-05-14 06:32:00,31.0,18.0,-100.00,East,98,0.0,2.0,58,-99.99,,,-99.99,,2013-05-14 14:32:00,
2013-05-14 06:42:00,31.0,18.0,-100.00,East,98,0.0,2.0,58,-99.99,,,-99.99,,2013-05-14 14:42:00,
2013-05-14 06:52:00,32.0,17.0,-100.00,WSW,237,0.0,0.0,54,-99.99,,,-99.99,,2013-05-14 14:52:00,
2013-05-14 07:01:00,32.0,17.0,-100.00,WSW,237,0.0,0.0,54,-99.99,,,-99.99,,2013-05-14 15:01:00,
2013-05-14 07:11:00,32.0,17.0,-100.00,WSW,237,0.0,0.0,54,-99.99,,,-99.99,,2013-05-14 15:11:00,
2013-05-14 07:21:00,32.0,17.0,-100.00,SSW,195,2.0,4.0,54,-99.99,,,-99.99,,2013-05-14 15:21:00,
2013-05-14 07:32:00,32.0,17.0,-100.00,SSW,195,2.0,4.0,54,-99.99,,,-99.99,,2013-05-14 15:32:00,
2013-05-14 07:43:00,32.0,17.0,-100.00,SSW,195,2.0,4.0,54,-99.99,,,-99.99,,2013-05-14 15:43:00,
2013-05-14 08:23:00,32.0,14.0,-100.00,SW,218,3.0,4.0,46,-99.99,,,-99.99,,2013-05-14 16:23:00,
2013-05-14 08:33:00,32.0,14.0,-100.00,SW,218,3.0,4.0,46,-99.99,,,-99.99,,2013-05-14 16:33:00,
2013-05-14 08:43:00,32.0,14.0,-100.00,SW,218,3.0,4.0,46,-99.99,,,-99.99,,2013-05-14 16:43:00,
2013-05-14 08:54:00,32.0,13.0,-100.00,SSW,213,1.0,3.0,45,-99.99,,,-99.99,,2013-05-14 16:54:00,
2013-05-14 09:03:00,32.0,16.0,-100.00,SW,225,1.0,4.0,52,-99.99,,,-99.99,,2013-05-14 17:03:00,
2013-05-14 09:13:00,32.0,16.0,-100.00,SW,225,1.0,4.0,52,-99.99,,,-99.99,,2013-05-14 17:13:00,
2013-05-14 09:21:00,32.0,15.0,-100.00,SW,217,0.0,3.0,48,-99.99,,,-99.99,,2013-05-14 17:21:00,
2013-05-14 09:24:00,32.0,14.0,-100.00,WSW,253,1.0,3.0,46,-99.99,,,-99.99,,2013-05-14 17:24:00,
2013-05-14 09:32:00,32.0,14.0,-100.00,WSW,253,1.0,3.0,46,-99.99,,,-99.99,,2013-05-14 17:32:00,
2013-05-14 09:43:00,32.0,14.0,-100.00,WSW,253,1.0,3.0,46,-99.99,,,-99.99,,2013-05-14 17:43:00,
2013-05-14 09:52:00,32.0,15.0,-100.00,SW,217,0.0,3.0,48,-99.99,,,-99.99,,2013-05-14 17:52:00,
2013-05-14 10:02:00,32.0,15.0,-100.00,SW,217,0.0,3.0,48,-99.99,,,-99.99,,2013-05-14 18:02:00,
2013-05-14 10:12:00,32.0,15.0,-100.00,SW,217,0.0,3.0,48,-99.99,,,-99.99,,2013-05-14 18:12:00,
2013-05-14 11:32:00,32.0,15.0,-100.00,South,191,1.0,5.0,50,-99.99,,,-99.99,,2013-05-14 19:32:00,
2013-05-14 11:42:00,32.0,15.0,-100.00,South,191,1.0,5.0,50,-99.99,,,-99.99,,2013-05-14 19:42:00,
2013-05-14 11:52:00,32.0,15.0,-100.00,West,264,1.0,4.0,49,-99.99,,,-99.99,,2013-05-14 19:52:00,
2013-05-14 12:02:00,33.0,16.0,-100.00,SSW,208,0.0,5.0,49,-99.99,,,-99.99,,2013-05-14 20:02:00,
2013-05-14 12:11:00,33.0,16.0,-100.00,SSW,208,0.0,5.0,49,-99.99,,,-99.99,,2013-05-14 20:11:00,
2013-05-14 12:22:00,33.0,16.0,-100.00,SSW,208,0.0,5.0,49,-99.99,,,-99.99,,2013-05-14 20:22:00,
2013-05-14 12:32:00,33.0,16.0,-100.00,SSW,208,0.0,5.0,49,-99.99,,,-99.99,,2013-05-14 20:32:00,
2013-05-14 13:03:00,31.0,23.0,-100.00,East,90,8.0,11.0,73,-99.99,,,-99.99,,2013-05-14 21:03:00,
2013-05-14 13:12:00,31.0,23.0,-100.00,East,90,8.0,11.0,73,-99.99,,,-99.99,,2013-05-14 21:12:00,
2013-05-14 13:22:00,31.0,23.0,-100.00,East,90,8.0,11.0,73,-99.99,,,-99.99,,2013-05-14 21:22:00,
2013-05-14 13:33:00,31.0,23.0,-100.00,East,90,8.0,11.0,73,-99.99,,,-99.99,,2013-05-14 21:33:00,
2013-05-14 13:53:00,31.0,25.0,-100.00,ENE,70,5.0,11.0,79,-99.99,,,-99.99,,2013-05-14 21:53:00,
2013-05-14 14:03:00,33.0,25.0,-100.00,ENE,60,8.0,12.0,71,-99.99,,,-99.99,,2013-05-14 22:03:00,
2013-05-14 14:13:00,33.0,25.0,-100.00,ENE,60,8.0,12.0,71,-99.99,,,-99.99,,2013-05-14 22:13:00,
2013-05-14 14:24:00,34.0,25.0,-100.00,ENE,65,8.0,14.0,70,-99.99,,,-99.99,,2013-05-14 22:24:00,
2013-05-14 14:34:00,33.0,24.0,-100.00,NE,56,6.0,12.0,68,-99.99,,,-99.99,,2013-05-14 22:34:00,
2013-05-14 14:45:00,33.0,24.0,-100.00,NE,56,6.0,12.0,68,-99.99,,,-99.99,,2013-05-14 22:45:00,
2013-05-14 14:54:00,33.0,24.0,-100.00,NE,56,6.0,12.0,68,-99.99,,,-99.99,,2013-05-14 22:54:00,
2013-05-14 15:03:00,37.0,23.0,-100.00,NE,52,3.0,12.0,57,-99.99,,,-99.99,,2013-05-14 23:03:00,
2013-05-14 15:12:00,37.0,23.0,-100.00,NE,52,3.0,12.0,57,-99.99,,,-99.99,,2013-05-14 23:12:00,
2013-05-14 15:21:00,37.0,23.0,-100.00,NE,52,3.0,12.0,57,-99.99,,,-99.99,,2013-05-14 23:21:00,
2013-05-14 15:31:00,39.0,22.0,-100.00,NE,55,3.0,11.0,50,-99.99,,,-99.99,,2013-05-14 23:31:00,
2013-05-14 15:44:00,39.0,22.0,-100.00,NE,55,3.0,11.0,50,-99.99,,,-99.99,,2013-05-14 23:44:00,
2013-05-14 15:52:00,38.0,22.0,-100.00,ENE,59,1.0,5.0,51,-99.99,,,-99.99,,2013-05-14 23:52:00,
2013-05-14 16:01:00,38.0,22.0,-100.00,ENE,59,1.0,5.0,51,-99.99,,,-99.99,,2013-05-15 00:01:00,
2013-05-14 16:11:00,38.0,22.0,-100.00,ENE,59,1.0,5.0,51,-99.99,,,-99.99,,2013-05-15 00:11:00,
2013-05-14 16:32:00,36.0,21.0,-100.00,West,264,5.0,11.0,53,-99.99,,,-99.99,,2013-05-15 00:32:00,
2013-05-14 16:42:00,36.0,21.0,-100.00,West,264,5.0,11.0,53,-99.99,,,-99.99,,2013-05-15 00:42:00,
2013-05-14 16:52:00,36.0,21.0,-100.00,WNW,284,3.0,11.0,54,-99.99,,,-99.99,,2013-05-15 00:52:00,
2013-05-14 17:01:00,36.0,21.0,-100.00,WNW,284,3.0,11.0,54,-99.99,,,-99.99,,2013-05-15 01:01:00,
2013-05-14 17:11:00,36.0,21.0,-100.00,WNW,284,3.0,11.0,54,-99.99,,,-99.99,,2013-05-15 01:11:00,
2013-05-14 17:21:00,36.0,20.0,-100.00,WSW,243,3.0,12.0,51,-99.99,,,-99.99,,2013-05-15 01:21:00,
2013-05-14 17:31:00,36.0,20.0,-100.00,WSW,243,3.0,12.0,51,-99.99,,,-99.99,,2013-05-15 01:31:00,
2013-05-14 17:42:00,36.0,20.0,-100.00,WSW,243,3.0,12.0,51,-99.99,,,-99.99,,2013-05-15 01:42:00,
2013-05-14 17:52:00,36.0,19.0,-100.00,West,275,3.0,9.0,49,-99.99,,,-99.99,,2013-05-15 01:52:00,
2013-05-14 18:01:00,36.0,18.0,-100.00,West,267,4.0,12.0,48,-99.99,,,-99.99,,2013-05-15 02:01:00,
2013-05-14 18:11:00,36.0,18.0,-100.00,West,267,4.0,12.0,48,-99.99,,,-99.99,,2013-05-15 02:11:00,
2013-05-14 18:21:00,36.0,18.0,-100.00,West,267,4.0,12.0,48,-99.99,,,-99.99,,2013-05-15 02:21:00,
2013-05-14 18:31:00,36.0,18.0,-100.00,West,267,4.0,12.0,48,-99.99,,,-99.99,,2013-05-15 02:31:00,
2013-05-14 18:52:00,37.0,19.0,-100.00,SW,232,3.0,8.0,47,-99.99,,,-99.99,,2013-05-15 02:52:00,
2013-05-14 19:01:00,37.0,19.0,-100.00,SW,232,3.0,8.0,47,-99.99,,,-99.99,,2013-05-15 03:01:00,
2013-05-14 19:12:00,37.0,19.0,-100.00,SW,232,3.0,8.0,47,-99.99,,,-99.99,,2013-05-15 03:12:00,
2013-05-14 19:22:00,43.0,21.0,-100.00,West,274,3.0,11.0,41,-99.99,,,-99.99,,2013-05-15 03:22:00,
2013-05-14 19:33:00,41.0,20.0,-100.00,WSW,255,0.0,6.0,43,-99.99,,,-99.99,,2013-05-15 03:33:00,
2013-05-14 19:44:00,41.0,20.0,-100.00,WSW,255,0.0,6.0,43,-99.99,,,-99.99,,2013-05-15 03:44:00,
2013-05-14 19:54:00,43.0,21.0,-100.00,West,274,3.0,11.0,41,-99.99,,,-99.99,,2013-05-15 03:54:00,
2013-05-14 20:03:00,43.0,21.0,-100.00,West,274,3.0,11.0,41,-99.99,,,-99.99,,2013-05-15 04:03:00,
2013-05-14 20:12:00,43.0,21.0,-100.00,West,274,3.0,11.0,41,-99.99,,,-99.99,,2013-05-15 04:12:00,
2013-05-14 20:52:00,38.0,21.0,-100.00,WSW,238,4.0,11.0,50,-99.99,,,-99.99,,2013-05-15 04:52:00,
2013-05-14 21:02:00,38.0,21.0,-100.00,WSW,238,4.0,11.0,50,-99.99,,,-99.99,,2013-05-15 05:02:00,
2013-05-14 21:12:00,38.0,21.0,-100.00,WSW,238,4.0,11.0,50,-99.99,,,-99.99,,2013-05-15 05:12:00,
2013-05-14 21:22:00,36.0,19.0,-100.00,WNW,284,1.0,5.0,50,-99.99,,,-99.99,,2013-05-15 05:22:00,
2013-05-14 21:32:00,36.0,20.0,-100.00,North,355,0.0,5.0,51,-99.99,,,-99.99,,2013-05-15 05:32:00,
2013-05-14 21:42:00,36.0,20.0,-100.00,North,355,0.0,5.0,51,-99.99,,,-99.99,,2013-05-15 05:42:00,
2013-05-14 21:52:00,38.0,21.0,-100.00,North,0,1.0,4.0,49,-99.99,,,-99.99,,2013-05-15 05:52:00,
2013-05-14 22:02:00,40.0,20.0,-100.00,North,0,0.0,4.0,45,-99.99,,,-99.99,,2013-05-15 06:02:00,
2013-05-14 22:11:00,40.0,20.0,-100.00,North,0,0.0,4.0,45,-99.99,,,-99.99,,2013-05-15 06:11:00,
2013-05-14 22:21:00,40.0,19.0,-100.00,NNE,21,2.0,5.0,42,-99.99,,,-99.99,,2013-05-15 06:21:00,
2013-05-14 22:31:00,39.0,20.0,-100.00,NNW,339,0.0,4.0,46,-99.99,,,-99.99,,2013-05-15 06:31:00,
2013-05-14 22:41:00,39.0,20.0,-100.00,NNW,339,0.0,4.0,46,-99.99,,,-99.99,,2013-05-15 06:41:00,
2013-05-14 22:51:00,38.0,19.0,-100.00,NNE,27,2.0,4.0,45,-99.99,,,-99.99,,2013-05-15 06:51:00,
2013-05-14 23:01:00,38.0,19.0,-100.00,NNE,27,2.0,4.0,45,-99.99,,,-99.99,,2013-05-15 07:01:00,
2013-05-14 23:11:00,38.0,19.0,-100.00,NNE,27,2.0,4.0,45,-99.99,,,-99.99,,2013-05-15 07:11:00,
2013-05-14 23:21:00,34.0,18.0,-100.00,North,1,1.0,3.0,51,-99.99,,,-99.99,,2013-05-15 07:21:00,
2013-05-14 23:32:00,34.0,18.0,-100.00,North,1,1.0,3.0,51,-99.99,,,-99.99,,2013-05-15 07:32:00,
2013-05-14 23:41:00,34.0,18.0,-100.00,North,1,1.0,3.0,51,-99.99,,,-99.99,,2013-05-15 07:41:00,